Window Rock, AZ

1:58 AM MDT on April 26, 2018 (GMT -0600)
Window Rock

Weather History for KRQE - March, 2014

Change the Weather History Date:

Monday, March 24, 2014

  Actual Average Record
Temperature  
Mean Temperature 42 °F -  
Max Temperature 66 °F 57 °F 75 °F (1990)
Min Temperature 19 °F 26 °F 9 °F (2013)
Degree Days  
Heating Degree Days 24    
Moisture  
Dew Point 3 °F    
Average Humidity 27    
Maximum Humidity 57    
Minimum Humidity 6    
Precipitation  
Precipitation 0.00 in - - ()
Sea Level Pressure  
Sea Level Pressure 30.09 in    
Wind  
Wind Speed 2 mph (NNW)    
Max Wind Speed 13 mph    
Max Gust Speed 21 mph    
Visibility 10 miles    
Events      
Averages and records for this station are not official NWS values.
T = Trace of Precipitation, MM = Missing Value Source: NWS Daily Summary

Daily Weather History Graph

Daily Weather History Graph

Search for Another Location

Airport or City:

Astronomy

Mar. 24, 2014 Rise Set
Actual Time 7:14 AM MDT 7:31 PM MDT
Civil Twilight 6:48 AM MDT 7:56 PM MDT
Nautical Twilight 6:18 AM MDT 8:26 PM MDT
Astronomical Twilight 5:48 AM MDT 8:57 PM MDT
Moon 2:36 AM MDT (3/24) 1:11 PM MDT (3/24)
Length of Visible Light 13h 08m
Length of Day
12h 17m
Last Quarter, 42% of the Moon is Illuminated
Mar 24
Last Quarter
Mar 30
New
Apr 7
First Quarter
Apr 15
Full
Apr 22
Last Quarter

Hourly Weather History & Observations

Time (MDT) Temp. Windchill Dew Point Humidity Pressure Visibility Wind Dir Wind Speed Gust Speed Precip Events Conditions
12:53 AM 30.0 °F - 10.0 °F 43% 30.06 in 10.0 mi Calm Calm - N/A   Clear
1:53 AM 26.1 °F - 9.0 °F 49% 30.08 in 10.0 mi Calm Calm - N/A   Clear
2:53 AM 25.0 °F - 8.1 °F 49% 30.08 in 10.0 mi Calm Calm - N/A   Clear
3:53 AM 25.0 °F - 9.0 °F 51% 30.08 in 10.0 mi Calm Calm - N/A   Clear
4:53 AM 19.0 °F - 6.1 °F 57% 30.10 in 10.0 mi Calm Calm - N/A   Clear
5:53 AM 24.1 °F - 8.1 °F 51% 30.11 in 10.0 mi Calm Calm - N/A   Clear
6:53 AM 19.9 °F - 7.0 °F 57% 30.15 in 10.0 mi Calm Calm - N/A   Clear
7:53 AM 21.0 °F - 8.1 °F 57% 30.18 in 10.0 mi Calm Calm - N/A   Clear
8:53 AM 33.1 °F - 10.9 °F 40% 30.15 in 10.0 mi Calm Calm - N/A   Clear
9:53 AM 46.0 °F - 10.9 °F 24% 30.13 in 10.0 mi Calm Calm - N/A   Clear
10:53 AM 57.0 °F - 6.1 °F 13% 30.08 in 10.0 mi Variable 5.8 mph - N/A   Clear
11:53 AM 60.1 °F - 1.9 °F 10% 30.07 in 10.0 mi Variable 6.9 mph - N/A   Clear
12:53 PM 62.1 °F - -0.0 °F 8% 30.07 in 10.0 mi North 12.7 mph 17.3 mph N/A   Clear
1:53 PM 63.0 °F - -2.0 °F 7% 30.06 in 10.0 mi North 11.5 mph - N/A   Clear
2:53 PM 64.0 °F - -2.0 °F 7% 30.04 in 10.0 mi Variable 6.9 mph 20.7 mph N/A   Clear
3:53 PM 64.0 °F - -4.0 °F 6% 30.03 in 10.0 mi Variable 6.9 mph 17.3 mph N/A   Clear
4:53 PM 64.0 °F - -4.0 °F 6% 30.05 in 10.0 mi NNW 5.8 mph - N/A   Clear
5:53 PM 62.1 °F - -5.1 °F 7% 30.05 in 10.0 mi NW 12.7 mph - N/A   Clear
6:53 PM 59.0 °F - -6.0 °F 7% 30.09 in 10.0 mi North 9.2 mph - N/A   Clear
7:53 PM 50.0 °F - -2.9 °F 11% 30.13 in 10.0 mi North 4.6 mph - N/A   Clear
8:53 PM 45.0 °F - -2.0 °F 14% 30.12 in 10.0 mi Calm Calm - N/A   Clear
9:53 PM 37.0 °F 34.5 °F -2.0 °F 19% 30.11 in 10.0 mi Variable 3.5 mph - N/A   Clear
10:53 PM 30.9 °F - -0.9 °F 26% 30.09 in 10.0 mi Calm Calm - N/A   Clear
11:53 PM 32.0 °F - 1.0 °F 27% 30.08 in 10.0 mi Calm Calm - N/A   Clear